Weather in Jeongseon Alpine Centre

South Korea     37°28′27″N   128°36′36″E
temp.,
°C
wind,
m/s
gust,
m/s
humid.,
%
clouds,
%
prec.,
mm/h
press.,
hPa
HPBL,
m
17 april, sat
sat1700:00+3w1175100 0.0 101916
03:00+2s11641 0.0 101710
06:00+1ne11610 0.0 101510
09:00+10wsw113088 0.0 1013546
12:00+10w663299 0.0 10111848
15:00+8w684098 0.1 10102184
18:00+5wnw510644 0.4 10111289
21:00+2w386959 0.4 1012501
18 april, sun
sun1800:000w37752 0.0 1013356
03:00−2w22834 0.0 101334
06:000wnw238762 0.0 1014279
09:00+6w25563 0.0 1014872
12:00+10wnw47425 0.0 10131727
15:00+11wnw56355 0.0 10122035
18:00+9w48450 0.0 10131422
21:00+5w27685 0.0 1016244
19 april, mon
mon1900:00+3w21780 0.0 101817
03:00+2w11760 0.0 101713
06:00+1w21750 0.0 101816
09:00+9w27370 0.0 1017681
12:00+14w48300 0.0 10141104
15:00+15w610313 0.0 10131264
18:00+13wsw394414 0.0 1014876
21:00+7w22640 0.0 101717
20 april, tue
tue2000:00+6w22660 0.0 101920
03:00+4w22670 0.0 101919
06:00+4wnw11660 0.0 102014
09:00+13w24370 0.0 1020526
12:00+18w24310 0.0 10191036
15:00+19wnw34312 0.0 10181401
18:00+16w24460 0.0 1019229
21:00+10nw11620 0.0 102210
21 april, wed
wed2100:00+9nw11645 0.0 102310
03:00+8nnw11631 0.0 102410
06:00+8n11634 0.0 102410
09:00+17sw01400 0.0 1023369
12:00+22wsw23275 0.0 10221991
15:00+23w32205 0.0 10202715
18:00+19w25365 0.0 1020164
21:00+13nnw1145100 0.0 102210